Terug naar catalogus

ONEWEB-0232

ActiefCommunicatiePO
NORAD 48781·PAYLOAD·🇬🇧 United Kingdom

Gelanceerd May 28, 2021 vanaf Vostochny Cosmodrome

Loading…

Volgende Passages (komende 24 uur)

TLE

VersSource: CelesTrak SupGP

Epoch: Sep 14, 2026, 19:48 UTC

1 48781C 21045Q   26257.82517778  .00002689  00000+0  71512-2 0  2576
2 48781  87.8986 241.3185 0001968  85.7672 311.5916 13.15541423    15

Volg ONEWEB-0232 in realtime met AllMySat

Download on the App Store